Find Starlink 4430

NORAD ID: 53485 Int'l Des: 2022-099 Owner: SPXS Country: US Constellation: starlink operational
LEOCIRCULARRETROGRADESSO

当前视图

正在加载3D地球...

About Starlink 4430

Starlink 4430 (NORAD 53485) is a starlink constellation satellite (v1.5) launched Aug 12, 2022 by SPXS of US. It operates in LEO, CIRCULAR, RETROGRADE, SSO orbit with a mass of 300.00 kg.

即将过境

Passes for default location (London). Set your location on the main map for personalized predictions.

高度历史

Loading altitude history...

两行轨道根数

1 53485U 22099W 26228.56412069 -.00001475 00000-0 -98372-4 0 9992
2 53485 97.2860 344.2984 0001701 119.6614 240.4783 15.05648310220038
Epoch: Aug 16, 2026 • Age: 7 hours

当前状态

高度 554.0 km
远地点 / 近地点 N/A
速度 7.59 km/s
星下点 34.40°N, 73.26°E
发射日期 Aug 12, 2022
运行时间 4 years
类型 internet

技术详情

分类 Payload
质量 300.00 kg
干质量 275.00 kg
总质量 300.00 kg
长度 0.20 m
直径 2.80 m
跨度 9.00 m
形状 Box + pan
制造商 SPXS
平台类型 Starlink
阶段状态 In Orbit
所有者/国家 SPXS/US

Most Searched